EWG3Z EDDK-EDDM

Flight info

Callsign EWG3Z
Flight time 0h 51m
Altitude 35000
Route KUMIK1R KUMIK Y854 BOMBI T104 ROKIL ROKIL1B
Aircraft A320/M-SDE3FGHIRWY/LB1

Departure

Time 2026-05-05 15:27
Airport Cologne Bonn Airport (EDDK)

Arrival

Time 2026-05-05 16:19
Airport Munich Airport (EDDM)
Time Latitude Longitude Altitude Speed Heading
2026-05-05 14:53 50.88105 7.12093 235 ft 0 kts 216°
2026-05-05 15:12 50.88109 7.12097 232 ft 3 kts 216°
2026-05-05 15:12 50.88130 7.12124 233 ft 4 kts 217°
2026-05-05 15:12 50.88147 7.12142 232 ft 4 kts 181°
2026-05-05 15:13 50.88166 7.12126 232 ft 4 kts 125°
2026-05-05 15:13 50.88176 7.12102 232 ft 0 kts 126°
2026-05-05 15:16 50.88156 7.12147 236 ft 16 kts 126°
2026-05-05 15:16 50.88101 7.12287 234 ft 14 kts 104°
2026-05-05 15:16 50.88056 7.12408 232 ft 13 kts 130°
2026-05-05 15:16 50.87977 7.12529 232 ft 20 kts 138°
2026-05-05 15:17 50.87845 7.12619 235 ft 22 kts 167°
2026-05-05 15:17 50.87727 7.12759 232 ft 21 kts 137°
2026-05-05 15:17 50.87622 7.12912 232 ft 20 kts 137°
2026-05-05 15:17 50.87512 7.13071 232 ft 24 kts 137°
2026-05-05 15:18 50.87376 7.13268 232 ft 28 kts 137°
2026-05-05 15:18 50.87228 7.13481 235 ft 29 kts 137°
2026-05-05 15:18 50.87081 7.13696 241 ft 29 kts 137°
2026-05-05 15:18 50.86935 7.13905 249 ft 27 kts 138°
2026-05-05 15:19 50.86801 7.14099 255 ft 26 kts 140°
2026-05-05 15:19 50.86712 7.14172 257 ft 7 kts 138°
2026-05-05 15:19 50.86661 7.14241 260 ft 18 kts 137°
2026-05-05 15:19 50.86554 7.14398 262 ft 21 kts 137°
2026-05-05 15:20 50.86462 7.14531 268 ft 15 kts 137°
2026-05-05 15:20 50.86394 7.14629 272 ft 11 kts 137°
2026-05-05 15:20 50.86307 7.14755 277 ft 24 kts 137°
2026-05-05 15:20 50.86186 7.14929 284 ft 22 kts 137°
2026-05-05 15:21 50.86082 7.15082 288 ft 19 kts 137°
2026-05-05 15:21 50.85994 7.15209 294 ft 15 kts 137°
2026-05-05 15:21 50.85894 7.15353 296 ft 24 kts 137°
2026-05-05 15:21 50.85763 7.15543 299 ft 26 kts 137°
2026-05-05 15:22 50.85628 7.15737 303 ft 26 kts 137°
2026-05-05 15:22 50.85506 7.15914 308 ft 12 kts 134°
2026-05-05 15:22 50.85501 7.16029 310 ft 11 kts 58°
2026-05-05 15:22 50.85548 7.16111 308 ft 10 kts 47°
2026-05-05 15:23 50.85604 7.16208 308 ft 0 kts 47°
2026-05-05 15:25 50.85607 7.16214 308 ft 4 kts 47°
2026-05-05 15:25 50.85645 7.16281 308 ft 12 kts 49°
2026-05-05 15:26 50.85717 7.16283 311 ft 12 kts 324°
2026-05-05 15:26 50.85745 7.16243 309 ft 0 kts 317°
2026-05-05 15:27 50.85929 7.15978 301 ft 76 kts 317°
2026-05-05 15:27 50.86488 7.15168 281 ft 139 kts 317°
2026-05-05 15:27 50.87250 7.14036 734 ft 152 kts 317°
2026-05-05 15:27 50.88044 7.12902 1489 ft 156 kts 320°
2026-05-05 15:28 50.88897 7.11733 1974 ft 174 kts 324°
2026-05-05 15:28 50.90083 7.10989 2305 ft 194 kts 359°
2026-05-05 15:28 50.91438 7.11451 2887 ft 210 kts 21°
2026-05-05 15:28 50.92769 7.12548 3638 ft 220 kts 32°
2026-05-05 15:29 50.93822 7.14361 4480 ft 233 kts 64°
2026-05-05 15:29 50.94456 7.16828 5308 ft 252 kts 70°
2026-05-05 15:29 50.95161 7.19499 5871 ft 273 kts 65°
2026-05-05 15:29 50.96014 7.22251 6683 ft 281 kts 64°
2026-05-05 15:30 50.96919 7.25032 7569 ft 285 kts 63°
2026-05-05 15:30 50.97841 7.27834 8519 ft 289 kts 63°
2026-05-05 15:30 50.98773 7.30688 9453 ft 293 kts 64°
2026-05-05 15:30 50.99712 7.33605 10194 ft 305 kts 64°
2026-05-05 15:31 51.00674 7.36737 10514 ft 327 kts 70°
2026-05-05 15:31 51.01153 7.40321 11087 ft 336 kts 90°
2026-05-05 15:31 51.00809 7.43972 11863 ft 338 kts 111°
2026-05-05 15:31 50.99946 7.47458 12713 ft 341 kts 114°
2026-05-05 15:32 50.99029 7.50936 13589 ft 344 kts 115°
2026-05-05 15:32 50.98078 7.54445 14352 ft 348 kts 115°
2026-05-05 15:32 50.97107 7.57992 15123 ft 352 kts 115°
2026-05-05 15:32 50.96126 7.61570 15986 ft 357 kts 115°
2026-05-05 15:33 50.95130 7.65213 16691 ft 361 kts 115°
2026-05-05 15:33 50.94129 7.68889 17394 ft 364 kts 115°
2026-05-05 15:33 50.93125 7.72603 18076 ft 368 kts 115°
2026-05-05 15:33 50.92113 7.76346 18669 ft 371 kts 115°
2026-05-05 15:34 50.91090 7.80126 19274 ft 374 kts 115°
2026-05-05 15:34 50.90060 7.83926 19870 ft 377 kts 115°
2026-05-05 15:34 50.89020 7.87754 20511 ft 380 kts 115°
2026-05-05 15:34 50.87968 7.91616 21188 ft 383 kts 115°
2026-05-05 15:35 50.86904 7.95506 21861 ft 387 kts 115°
2026-05-05 15:35 50.85840 7.99380 22480 ft 390 kts 116°
2026-05-05 15:35 50.84668 8.03258 23011 ft 391 kts 123°
2026-05-05 15:35 50.83088 8.06758 23556 ft 391 kts 133°
2026-05-05 15:36 50.81132 8.09740 24003 ft 391 kts 143°
2026-05-05 15:36 50.78885 8.12170 24444 ft 392 kts 149°
2026-05-05 15:36 50.76577 8.14493 24911 ft 394 kts 149°
2026-05-05 15:36 50.74258 8.16830 25353 ft 396 kts 149°
2026-05-05 15:37 50.71930 8.19175 25781 ft 398 kts 149°
2026-05-05 15:37 50.69590 8.21530 26215 ft 400 kts 149°
2026-05-05 15:37 50.67236 8.23888 26637 ft 402 kts 149°
2026-05-05 15:37 50.64860 8.26265 27062 ft 404 kts 149°
2026-05-05 15:38 50.62475 8.28650 27484 ft 406 kts 149°
2026-05-05 15:38 50.60087 8.31039 27875 ft 409 kts 149°
2026-05-05 15:38 50.57676 8.33448 28298 ft 411 kts 149°
2026-05-05 15:38 50.55256 8.35862 28720 ft 413 kts 149°
2026-05-05 15:39 50.52824 8.38283 29158 ft 415 kts 150°
2026-05-05 15:39 50.50379 8.40711 29637 ft 416 kts 150°
2026-05-05 15:39 50.47927 8.43147 30079 ft 418 kts 150°
2026-05-05 15:39 50.45461 8.45597 30438 ft 421 kts 150°
2026-05-05 15:40 50.42985 8.48057 30777 ft 422 kts 150°
2026-05-05 15:40 50.40496 8.50524 31090 ft 423 kts 150°
2026-05-05 15:40 50.38003 8.52986 31411 ft 424 kts 151°
2026-05-05 15:40 50.35499 8.55318 31785 ft 423 kts 153°
2026-05-05 15:41 50.32927 8.57536 32248 ft 420 kts 154°
2026-05-05 15:41 50.30348 8.59653 32735 ft 417 kts 155°
2026-05-05 15:41 50.27770 8.61724 33227 ft 414 kts 155°
2026-05-05 15:41 50.25214 8.63783 33688 ft 412 kts 155°
2026-05-05 15:42 50.22685 8.65844 33960 ft 411 kts 155°
2026-05-05 15:42 50.20152 8.67937 34203 ft 411 kts 154°
2026-05-05 15:42 50.17631 8.70043 34446 ft 411 kts 154°
2026-05-05 15:42 50.15107 8.72157 34705 ft 412 kts 154°
2026-05-05 15:43 50.12578 8.74273 34809 ft 411 kts 154°
2026-05-05 15:43 50.07593 8.78430 34837 ft 404 kts 154°
2026-05-05 15:44 50.03079 8.83679 34836 ft 408 kts 141°
2026-05-05 15:44 49.98887 8.89636 34835 ft 408 kts 141°
2026-05-05 15:45 49.94685 8.95576 34836 ft 408 kts 141°
2026-05-05 15:45 49.90473 9.01483 34830 ft 408 kts 141°
2026-05-05 15:46 49.86269 9.07381 34829 ft 407 kts 141°
2026-05-05 15:46 49.82067 9.13284 34825 ft 407 kts 141°
2026-05-05 15:47 49.77902 9.19122 34825 ft 407 kts 141°
2026-05-05 15:47 49.73703 9.24974 34831 ft 406 kts 141°
2026-05-05 15:48 49.69501 9.30815 34830 ft 406 kts 141°
2026-05-05 15:48 49.65296 9.36653 34832 ft 406 kts 141°
2026-05-05 15:49 49.61166 9.42602 34836 ft 408 kts 135°
2026-05-05 15:49 49.57417 9.49199 34821 ft 409 kts 134°
2026-05-05 15:50 49.53696 9.55739 34827 ft 409 kts 134°
2026-05-05 15:50 49.49940 9.62315 34826 ft 409 kts 134°
2026-05-05 15:51 49.46177 9.68884 34824 ft 409 kts 135°
2026-05-05 15:51 49.42465 9.75346 34825 ft 409 kts 135°
2026-05-05 15:52 49.38696 9.81899 34827 ft 409 kts 135°
2026-05-05 15:52 49.35533 9.87376 34805 ft 409 kts 135°
2026-05-05 15:53 49.31766 9.93856 34818 ft 410 kts 135°
2026-05-05 15:53 49.27966 10.00391 34821 ft 410 kts 135°
2026-05-05 15:54 49.24169 10.06915 34825 ft 411 kts 135°
2026-05-05 15:54 49.20356 10.13434 34845 ft 411 kts 135°
2026-05-05 15:54 49.18453 10.16685 34546 ft 409 kts 135°
2026-05-05 15:55 49.16557 10.19920 33948 ft 408 kts 135°
2026-05-05 15:55 49.14664 10.23150 33298 ft 406 kts 135°
2026-05-05 15:55 49.12777 10.26334 32718 ft 403 kts 136°
2026-05-05 15:55 49.10871 10.29452 32179 ft 400 kts 136°
2026-05-05 15:56 49.08961 10.32508 31655 ft 396 kts 136°
2026-05-05 15:56 49.07058 10.35527 31144 ft 393 kts 136°
2026-05-05 15:56 49.05168 10.38525 30650 ft 390 kts 136°
2026-05-05 15:56 49.03299 10.41502 30189 ft 386 kts 136°
2026-05-05 15:57 49.01455 10.44445 29680 ft 383 kts 136°
2026-05-05 15:57 48.99619 10.47378 29103 ft 380 kts 136°
2026-05-05 15:57 48.97804 10.50272 28531 ft 377 kts 136°
2026-05-05 15:57 48.96000 10.53148 27977 ft 375 kts 136°
2026-05-05 15:58 48.94206 10.56008 27423 ft 372 kts 136°
2026-05-05 15:58 48.92424 10.58846 26848 ft 370 kts 136°
2026-05-05 15:58 48.90651 10.61668 26317 ft 368 kts 136°
2026-05-05 15:58 48.88887 10.64473 25796 ft 366 kts 136°
2026-05-05 15:59 48.87135 10.67254 25281 ft 364 kts 136°
2026-05-05 15:59 48.85392 10.70014 24774 ft 362 kts 136°
2026-05-05 15:59 48.83674 10.72729 24272 ft 360 kts 136°
2026-05-05 15:59 48.81944 10.75456 23783 ft 358 kts 136°
2026-05-05 16:00 48.80217 10.78181 23286 ft 357 kts 136°
2026-05-05 16:00 48.78501 10.80885 22759 ft 355 kts 136°
2026-05-05 16:00 48.76788 10.83579 22260 ft 354 kts 136°
2026-05-05 16:00 48.75087 10.86246 21786 ft 352 kts 136°
2026-05-05 16:01 48.73389 10.88903 21321 ft 350 kts 137°
2026-05-05 16:01 48.71699 10.91542 20846 ft 348 kts 137°
2026-05-05 16:01 48.70018 10.94164 20363 ft 346 kts 137°
2026-05-05 16:01 48.68352 10.96760 19933 ft 343 kts 137°
2026-05-05 16:02 48.66693 10.99344 19491 ft 341 kts 137°
2026-05-05 16:02 48.65043 11.01909 19047 ft 339 kts 137°
2026-05-05 16:02 48.63402 11.04458 18621 ft 337 kts 137°
2026-05-05 16:02 48.61768 11.06994 18235 ft 336 kts 137°
2026-05-05 16:03 48.60142 11.09517 17849 ft 334 kts 137°
2026-05-05 16:03 48.58515 11.12014 17420 ft 332 kts 140°
2026-05-05 16:03 48.56732 11.14178 17034 ft 327 kts 148°
2026-05-05 16:03 48.54869 11.16066 16671 ft 326 kts 149°
2026-05-05 16:04 48.52999 11.17967 16372 ft 323 kts 149°
2026-05-05 16:04 48.51169 11.19914 15997 ft 322 kts 144°
2026-05-05 16:04 48.49491 11.22155 15594 ft 322 kts 141°
2026-05-05 16:04 48.47834 11.24401 15206 ft 320 kts 141°
2026-05-05 16:05 48.46177 11.26636 14804 ft 319 kts 142°
2026-05-05 16:05 48.44550 11.28909 14408 ft 320 kts 135°
2026-05-05 16:05 48.43221 11.31611 14029 ft 323 kts 122°
2026-05-05 16:05 48.42328 11.34723 13651 ft 326 kts 109°
2026-05-05 16:06 48.41932 11.38093 13239 ft 329 kts 95°
2026-05-05 16:06 48.42047 11.41526 12854 ft 329 kts 84°
2026-05-05 16:06 48.42329 11.44943 12461 ft 327 kts 84°
2026-05-05 16:06 48.42600 11.48336 12159 ft 326 kts 85°
2026-05-05 16:07 48.42867 11.51715 11896 ft 325 kts 85°
2026-05-05 16:07 48.43132 11.55087 11644 ft 324 kts 85°
2026-05-05 16:07 48.43396 11.58449 11397 ft 322 kts 85°
2026-05-05 16:07 48.43659 11.61796 11150 ft 321 kts 85°
2026-05-05 16:08 48.43919 11.65120 10915 ft 317 kts 85°
2026-05-05 16:08 48.44172 11.68368 10819 ft 308 kts 85°
2026-05-05 16:08 48.44419 11.71556 10518 ft 305 kts 85°
2026-05-05 16:08 48.44662 11.74716 10187 ft 303 kts 85°
2026-05-05 16:09 48.44904 11.77860 9849 ft 301 kts 86°
2026-05-05 16:09 48.45140 11.80942 9481 ft 299 kts 86°
2026-05-05 16:09 48.45377 11.84050 9098 ft 298 kts 86°
2026-05-05 16:09 48.45609 11.87131 8717 ft 296 kts 86°
2026-05-05 16:10 48.45847 11.90203 8331 ft 295 kts 86°
2026-05-05 16:10 48.46083 11.93259 7984 ft 292 kts 84°
2026-05-05 16:10 48.46297 11.96274 7660 ft 288 kts 85°
2026-05-05 16:10 48.46504 11.99262 7420 ft 281 kts 86°
2026-05-05 16:11 48.46703 12.02136 7287 ft 270 kts 86°
2026-05-05 16:11 48.47232 12.10193 6579 ft 253 kts 86°
2026-05-05 16:12 48.47392 12.12827 6281 ft 252 kts 85°
2026-05-05 16:12 48.46408 12.17585 5598 ft 242 kts 141°
2026-05-05 16:13 48.41866 12.18496 4960 ft 215 kts 205°
2026-05-05 16:13 48.40644 12.17379 4951 ft 200 kts 222°
2026-05-05 16:13 48.39723 12.15829 4962 ft 200 kts 238°
2026-05-05 16:14 48.38913 12.11920 4978 ft 201 kts 265°
2026-05-05 16:14 48.38608 12.07749 4784 ft 199 kts 266°
2026-05-05 16:15 48.38302 12.03596 4282 ft 199 kts 266°
2026-05-05 16:15 48.37992 11.99441 3762 ft 199 kts 267°
2026-05-05 16:16 48.37685 11.95329 3247 ft 198 kts 267°
2026-05-05 16:16 48.37383 11.91323 2773 ft 181 kts 267°
2026-05-05 16:17 48.37124 11.87931 2308 ft 143 kts 266°
2026-05-05 16:17 48.37014 11.86470 2060 ft 142 kts 264°
2026-05-05 16:18 48.36802 11.83617 1726 ft 134 kts 260°
2026-05-05 16:18 48.36706 11.82268 1557 ft 131 kts 259°
2026-05-05 16:18 48.36529 11.80054 1480 ft 68 kts 263°
2026-05-05 16:19 48.36481 11.79422 1475 ft 54 kts 263°
2026-05-05 16:19 48.36424 11.78983 1483 ft 27 kts 238°
2026-05-05 16:19 48.36240 11.78588 1471 ft 14 kts 233°
2026-05-05 16:20 48.36113 11.78482 1480 ft 16 kts 175°
2026-05-05 16:20 48.36045 11.78692 1485 ft 12 kts 83°
2026-05-05 16:21 48.36065 11.78959 1474 ft 16 kts 83°
2026-05-05 16:22 48.36034 11.79324 1479 ft 11 kts 169°
2026-05-05 16:22 48.35903 11.79346 1485 ft 5 kts 241°
2026-05-05 16:23 48.35892 11.79236 1485 ft 5 kts 263°
2026-05-05 16:23 48.35891 11.79218 1485 ft 0 kts 264°